Overview Statistics Trail Chart Weather Telemetry Raw packets
 

This is the latest recevied weather packets stored in our database for station/object K6CEG. If no packets are shown the sender has not sent any weather packets the latest 10 day(s).

<< 42 43 44 45 46 47 48 >>
Time Temp. Humidity Pressure Rain* Wind** Luminosity Snow
1788394219 27.78° C 37% 1015.9 hPa 0 mm - 206 W/m² -
1788393915 28.33° C 36% 1015.7 hPa 0 mm - 265 W/m² -
1788393614 28.89° C 35% 1015.7 hPa 0 mm - 315 W/m² -
1788393308 29.44° C 34% 1015.8 hPa 0 mm - 32 W/m² -
1788393003 29.44° C 33% 1016.2 hPa 0 mm - 275 W/m² -
1788392697 28.89° C 34% 1015.9 hPa 0 mm - 49 W/m² -
1788392396 28.89° C 34% 1015.8 hPa 0 mm - 32 W/m² -
1788392095 28.89° C 34% 1015.7 hPa 0 mm - 32 W/m² -
1788391790 28.33° C 34% 1016.1 hPa 0 mm - 157 W/m² -
1788391485 28.89° C 35% 1015.7 hPa 0 mm - 33 W/m² -
1788391184 29.44° C 34% 1015.9 hPa 0 mm - 33 W/m² -
1788390879 28.33° C 37% 1015.9 hPa 0 mm - 34 W/m² -
1788390574 28.89° C 37% 1015.9 hPa 0 mm - 36 W/m² -
1788390268 28.89° C 37% 1015.9 hPa 0 mm - 38 W/m² -
1788389967 28.33° C 38% 1016.3 hPa 0 mm - 38 W/m² -
1788389663 28.89° C 38% 1016 hPa 0 mm - 38 W/m² -
1788389362 28.89° C 39% 1016 hPa 0 mm - 40 W/m² -
1788389061 28.89° C 38% 1016.1 hPa 0 mm - 42 W/m² -
1788388759 29.44° C 39% 1016.2 hPa 0 mm - 281 W/m² -
1788388459 29.44° C 38% 1016.1 hPa 0 mm - 78 W/m² -
1788388158 29.44° C 40% 1016.2 hPa 0 mm - 68 W/m² -
1788387857 29.44° C 39% 1016.3 hPa 0 mm - 46 W/m² -
1788387557 28.89° C 40% 1016.3 hPa 0 mm - 46 W/m² -
1788387256 28.89° C 40% 1016.4 hPa 0 mm - 47 W/m² -
1788386952 28.89° C 40% 1016.4 hPa 0 mm - 52 W/m² -

* Rain latest hour (hover to see other rain measurements)
** Current wind speed in m/s (hover to see current wind gust speed)